Visibility
14.2 15.0 13.9 15.0 15.0 15.0 15.0 15.0 15.0 15.0 15.0 15.0 15.0 15.0 15.0 15.0 15.0 15.0 15.0 15.0 15.0 15.0 15.0 15.0 15.0 15.0 15.0 15.0 15.0 15.0 15.0 15.0 15.0 15.0 15.0 15.0 15.0 15.0 15.0 15.0 15.0 15.0 15.0 15.0 15.0
10.1 14.7 14.8 15.0 15.0 15.0 15.0 15.0 15.0 15.0 15.0 15.0 15.0 15.0 15.0 15.0 15.0 15.0 15.0 15.0 15.0 15.0 15.0 15.0 15.0 15.0 15.0 15.0 15.0 15.0 15.0 15.0 15.0 15.0 15.0 15.0 15.0 15.0 15.0 15.0 15.0 15.0 15.0 15.0 15.0
14.8 14.1 14.6 12.0 15.0 15.0 15.0 15.0 15.0 15.0 15.0 15.0 15.0 15.0 15.0 12.9 15.0 15.0 15.0 15.0 15.0 15.0 15.0 15.0 15.0 15.0 15.0 15.0 15.0 15.0 15.0 15.0 15.0 15.0 15.0 15.0 15.0 15.0 15.0 15.0 15.0 15.0 15.0 15.0 15.0
15.0 15.0 13.8 15.0 14.6 14.7 15.0 15.0 10.5 14.4 15.0 15.0 15.0 15.0 15.0 15.0 15.0 15.0 15.0 15.0 15.0 15.0 15.0 15.0 15.0 15.0 15.0 15.0 15.0 15.0 15.0 15.0 15.0 15.0 15.0 15.0 15.0 15.0 15.0 15.0 15.0 15.0 15.0 15.0 15.0
15.0 15.0 15.0 14.9 15.0 14.1 14.4 15.0 10.5 15.0 14.5 15.0 15.0 15.0 2.1 3.0 15.0 15.0 15.0 15.0 15.0 15.0 15.0 15.0 15.0 15.0 15.0 15.0 15.0 15.0 15.0 15.0 15.0 15.0 15.0 15.0 15.0 15.0 15.0 15.0 15.0 15.0 15.0 15.0 15.0
14.6 15.0 15.0 15.0 15.0 15.0 8.2 15.0 15.0 15.0 15.0 15.0 15.0 8.5 13.6 5.3 15.0 15.0 15.0 15.0 15.0 15.0 15.0 15.0 15.0 15.0 15.0 15.0 15.0 15.0 15.0 15.0 15.0 15.0 15.0 15.0 15.0 15.0 15.0 15.0 15.0 15.0 15.0 15.0 15.0
15.0 15.0 14.9 15.0 15.0 15.0 14.3 15.0 12.3 12.5 15.0 15.0 15.0 12.1 15.0 15.0 15.0 15.0 15.0 15.0 15.0 15.0 15.0 15.0 15.0 15.0 15.0 15.0 15.0 15.0 15.0 15.0 15.0 15.0 15.0 15.0 15.0 15.0 15.0 15.0 15.0 15.0 15.0 15.0 15.0
15.0 15.0 11.8 15.0 15.0 15.0 15.0 15.0 15.0 10.1 8.4 15.0 15.0 14.6 15.0 15.0 15.0 15.0 13.4 15.0 15.0 9.4 15.0 12.7 13.9 15.0 15.0 15.0 15.0 15.0 15.0 15.0 15.0 15.0 15.0 15.0 15.0 15.0 15.0 15.0 15.0 15.0 15.0 15.0 15.0
15.0 15.0 15.0 14.8 14.8 8.7 12.7 15.0 13.8 12.8 15.0 11.5 15.0 14.2 15.0 15.0 15.0 15.0 15.0 14.8 12.5 12.0 10.5 15.0 10.2 6.7 0.6 8.3 8.2 15.0 15.0 15.0 15.0 15.0 15.0 15.0 15.0 15.0 15.0 15.0 15.0 15.0 15.0 15.0 15.0
14.3 15.0 14.6 15.0 15.0 12.7 13.6 6.3 5.3 9.9 13.6 10.1 13.3 0.5 13.6 15.0 15.0 12.9 12.0 14.5 4.9 13.2 0.1 0.3 0.6 0.3 4.4 0.2 0.1 14.5 0.6 15.0 15.0 15.0 15.0 15.0 15.0 15.0 15.0 15.0 15.0 15.0 15.0 15.0 15.0
15.0 15.0 15.0 15.0 15.0 15.0 5.6 3.3 0.1 0.1 15.0 14.9 15.0 14.9 15.0 15.0 15.0 15.0 15.0 5.1 5.4 8.4 0.6 15.0 3.7 0.2 14.9 15.0 15.0 15.0 10.8 15.0 15.0 15.0 15.0 15.0 15.0 15.0 15.0 15.0 15.0 15.0 15.0 15.0 15.0
14.2 14.9 15.0 15.0 15.0 15.0 5.8 0.3 14.6 15.0 0.1 15.0 15.0 15.0 15.0 15.0 15.0 15.0 13.1 8.8 10.1 14.4 10.9 0.7 0.1 15.0 14.8 9.8 15.0 15.0 8.1 14.8 15.0 15.0 15.0 15.0 15.0 15.0 15.0 15.0 15.0 15.0 15.0 15.0 15.0
13.3 15.0 15.0 15.0 10.8 13.3 15.0 3.8 10.4 15.0 3.7 15.0 15.0 15.0 15.0 15.0 15.0 15.0 11.9 15.0 15.0 15.0 15.0 13.8 12.4 15.0 10.3 15.0 15.0 15.0 12.7 6.6 14.8 15.0 15.0 15.0 15.0 15.0 15.0 15.0 15.0 15.0 15.0 15.0 15.0
10.9 14.7 15.0 9.4 6.5 15.0 15.0 11.8 6.2 9.5 0.0 0.0 7.0 15.0 15.0 15.0 15.0 15.0 15.0 8.6 9.2 15.0 15.0 7.8 15.0 15.0 15.0 13.9 13.2 13.5 15.0 12.1 15.0 15.0 2.2 11.7 2.4 15.0 15.0 15.0 15.0 15.0 15.0 15.0 15.0
14.2 11.7 10.8 15.0 15.0 15.0 15.0 15.0 6.0 3.0 0.0 0.2 15.0 15.0 15.0 15.0 15.0 15.0 15.0 4.7 6.2 15.0 8.0 15.0 15.0 15.0 15.0 15.0 15.0 15.0 15.0 15.0 15.0 13.8 0.5 14.5 1.0 15.0 15.0 15.0 15.0 15.0 15.0 15.0 15.0
11.4 8.3 9.8 7.5 12.1 15.0 15.0 15.0 0.5 0.0 0.1 0.0 13.6 15.0 15.0 15.0 15.0 15.0 15.0 15.0 15.0 9.1 4.6 15.0 15.0 8.9 15.0 15.0 15.0 12.1 14.4 13.6 12.7 14.8 0.0 15.0 5.8 15.0 15.0 15.0 15.0 15.0 15.0 15.0 15.0
14.4 8.2 8.8 12.5 15.0 11.3 13.3 0.1 0.0 0.0 0.1 0.0 0.3 15.0 15.0 15.0 15.0 14.9 11.2 15.0 15.0 10.9 15.0 15.0 15.0 15.0 15.0 15.0 15.0 15.0 15.0 0.1 0.1 0.0 0.1 15.0 8.3 12.0 15.0 15.0 15.0 15.0 15.0 15.0 15.0
9.2 12.0 7.5 15.0 12.8 7.0 7.3 0.0 0.0 0.3 1.8 0.5 15.0 15.0 13.9 15.0 15.0 15.0 15.0 15.0 15.0 15.0 15.0 15.0 15.0 15.0 15.0 15.0 15.0 15.0 14.8 0.9 0.1 3.6 15.0 15.0 13.3 15.0 15.0 15.0 15.0 15.0 15.0 15.0 15.0
15.0 12.0 6.1 13.2 5.3 5.7 0.9 0.0 0.2 9.2 15.0 0.3 12.5 3.3 0.8 7.3 15.0 12.9 15.0 15.0 15.0 15.0 15.0 15.0 15.0 15.0 15.0 15.0 14.6 15.0 0.4 15.0 11.9 14.9 0.2 8.6 15.0 15.0 15.0 15.0 15.0 15.0 15.0 15.0 15.0
15.0 5.7 11.2 14.5 7.8 7.1 0.0 0.1 0.1 15.0 15.0 15.0 1.0 8.5 0.8 2.1 12.3 13.5 4.5 15.0 15.0 15.0 15.0 15.0 15.0 15.0 15.0 13.7 14.1 15.0 14.3 0.0 0.0 0.1 0.1 6.5 15.0 15.0 15.0 15.0 15.0 15.0 15.0 15.0 15.0
13.6 0.2 13.1 9.6 5.4 0.1 0.0 0.1 0.1 10.0 15.0 15.0 15.0 8.4 15.0 11.4 15.0 15.0 15.0 15.0 15.0 15.0 15.0 15.0 15.0 15.0 15.0 15.0 15.0 15.0 12.1 12.6 8.9 0.0 0.4 0.1 6.2 15.0 15.0 15.0 15.0 15.0 15.0 15.0 15.0
11.0 0.0 15.0 6.2 0.0 0.0 0.0 0.0 4.3 0.6 15.0 15.0 15.0 15.0 15.0 15.0 15.0 15.0 15.0 15.0 15.0 15.0 15.0 15.0 15.0 15.0 15.0 15.0 15.0 15.0 15.0 15.0 15.0 15.0 15.0 15.0 12.1 15.0 15.0 15.0 15.0 15.0 15.0 15.0 15.0
0.0 0.1 9.6 15.0 0.0 0.1 0.0 0.1 0.1 1.9 15.0 15.0 15.0 15.0 15.0 15.0 15.0 15.0 15.0 15.0 15.0 15.0 15.0 15.0 15.0 3.5 13.4 15.0 15.0 15.0 15.0 15.0 7.6 12.4 13.2 9.6 13.1 15.0 15.0 15.0 15.0 15.0 15.0 15.0 15.0
0.0 0.0 0.0 4.9 0.5 0.0 0.4 1.9 0.0 4.0 15.0 15.0 15.0 15.0 15.0 15.0 15.0 15.0 15.0 15.0 15.0 15.0 15.0 15.0 15.0 15.0 15.0 15.0 15.0 15.0 15.0 15.0 9.0 1.2 9.7 4.4 8.1 15.0 15.0 15.0 15.0 15.0 15.0 15.0 15.0
0.0 0.0 0.0 0.0 0.0 0.1 0.1 15.0 0.1 0.0 9.4 15.0 15.0 15.0 15.0 15.0 15.0 15.0 15.0 15.0 15.0 15.0 15.0 15.0 10.4 15.0 15.0 15.0 15.0 15.0 14.9 14.2 5.8 15.0 5.5 15.0 15.0 15.0 15.0 15.0 15.0 15.0 15.0 15.0 15.0
0.3 0.2 0.0 14.8 15.0 0.0 0.1 0.2 11.4 0.2 15.0 15.0 15.0 15.0 15.0 15.0 15.0 15.0 15.0 15.0 15.0 15.0 15.0 15.0 15.0 15.0 15.0 15.0 15.0 15.0 15.0 15.0 15.0 15.0 14.9 15.0 15.0 15.0 15.0 15.0 15.0 15.0 15.0 15.0 15.0
8.7 15.0 10.9 0.2 0.2 0.1 10.4 0.1 15.0 15.0 15.0 15.0 15.0 15.0 15.0 15.0 15.0 15.0 15.0 15.0 15.0 15.0 15.0 15.0 15.0 0.4 8.9 15.0 15.0 2.7 15.0 15.0 15.0 15.0 15.0 15.0 15.0 15.0 15.0 15.0 15.0 15.0 15.0 15.0 15.0